Preview of NWS' New Version of Forecast
This preview is not operational and should not be used for support decisions.

Regional Weather Roundup (RWR)

Issued by National Weather Service (NWS)

                            
000
ASPQ40 PGUM 170410
RWRPQ 
WEATHER ROUNDUP FOR THE MARIANAS AND MICRONESIA
NATIONAL WEATHER SERVICE TIYAN GU
200 PM CHST WED APR 17 2019

GUZ001>004-170500-
MARIANA ISLANDS-
  
CITY           SKY/WX    TMP DP  RH WIND       PRES   REMARKS
GUAM AIRPORT   MOSUNNY   88  70  55 E14G24    29.91F HX  92           
ANDERSEN AFB   MOSUNNY   86  72  62 E16G23    29.91F HX  92           
ROTA AIRPORT   MOSUNNY   84  68  58 E18       29.89F                  
TINIAN AP      MOSUNNY   90  70  51 E16       29.88F HX  95           
SAIPAN AP      SUNNY     88  70  55 SE16G24   29.89F HX  92           

$$

PMZ161-170500-
REPUBLIC OF PALAU-
  
CITY           SKY/WX    TMP DP  RH WIND       PRES   REMARKS
KOROR AP       PTSUNNY   84  75  74 NE12G20   29.88S HX  92           
KOROR WSO      NOT AVBL                                               

$$

PMZ171>174-170500-
FEDERATED STATES OF MICRONESIA-
  
CITY           SKY/WX    TMP DP  RH WIND       PRES   REMARKS
YAP AIRPORT    PTSUNNY   90  77  66 E9        29.86F HX 102           
CHUUK AP       MOSUNNY   88  79  74 NE8       29.81F HX 102           
POHNPEI AP     CLOUDY    84  77  79 S5        29.80F HX  94           
POHNPEI WSO    CLOUDY    81  75  83 SE5       29.82F                  
KOSRAE AP      NOT AVBL                                               

$$

PMZ181-170500-
REPUBLIC OF THE MARSHALL ISLANDS-
  
CITY           SKY/WX    TMP DP  RH WIND       PRES   REMARKS
KWAJALEIN AP   MOSUNNY   86  75  70 E20G25    29.80F HX  95           
MAJURO AP      NOT AVBL                                               
MAJURO WSO     PTSUNNY   84  77  79 E10       29.78F HX  94           

$$